STARLINK-32697

Last updated on Wed Jan 29 2025 00:02:04 GMT+0000 (Coordinated Universal Time)

1 62436U 24251E 25028.50002315 -.01479254 00000+0 -36535-1 0 9994 2 62436 53.1598 66.5679 0000960 75.3861 248.8068 15.42972754 5858
UTC large
Height (km)
Speed (km/s)
/
Latitude / Longitude
Inclination (degrees)
Orbital Period (minutes)
Azimuth
Elevation
Range (km)
Doppler Factor

Next 0 passes for location: London (51.5072 / 0.1276)

Sorry there are no passes over London.